Terminal Aerodrome Forecast
Issued by NWS

Home | Current Version | Previous Version | Text Only | Print | Product List | Glossary On
Versions: 1 2 3 4 5 6 7 8 9 10 11 12 13 14
000
FTUS45 KFGZ 241100
TAFPRC
TAF
KPRC 241136Z 2412/2512 16006KT P6SM BKN110 BKN200
     FM242000 18010KT P6SM BKN100
     FM250200 17006KT P6SM SCT120 SCT200=

USA.gov is the U.S. government's official web portal to all federal, state and local government web resources and services.